[[{"header":{"parameterUnit":"m.s-1","parameterCategory":1,"la1":30.2991,"la2":30.254,"lo1":-89.0895,"lo2":-89.0444,"dy":0.0017,"dx":0.0017,"nx":28,"ny":28,"refTime":"2025-06-08T09:00:00:Z","depth":0,"parameterNumber":2,"parameterNumberName":"U-component_of_WINDS"},"data":[0,0,0,0,0,0,0,0,0,0,0,0,0,0,0,0,0,0,0,0,0,0,0,0,0,0,0,0,0,0,0,0,0,0,0,0,0,0,0,0,0,0,0,0,0,0,0,0,0,0,0,0,0,0,0,0,0,0,1.626,1.6261,0,1.6378,1.6379,1.6381,1.6456,1.6457,1.6457,1.6458,1.6579,1.6581,1.6584,0,0,0,0,0,0,0,0,0,0,0,0,0,1.6103,1.6105,1.6259,1.6261,1.6262,1.6378,1.6379,1.6381,1.6456,1.6457,1.6457,1.6458,1.6578,1.6581,1.6584,0,0,0,0,0,0,0,0,0,0,0,0,0,1.6191,1.6106,1.6259,1.6314,1.632,1.6378,1.638,1.6382,1.6456,1.6457,1.6458,1.6458,1.6577,1.6581,1.6585,1.6597,0,0,1.6598,1.66,0,0,0,0,0,0,0,0,1.6186,1.6196,1.6304,1.631,1.6317,1.6403,1.6369,1.6454,1.6456,1.6404,1.6458,1.6458,1.652,1.6529,1.6549,1.6603,1.6608,1.6598,1.6601,1.6602,1.6604,0,0,0,0,0,0,0,1.6179,1.6192,1.6306,1.6306,1.6314,1.6334,1.6347,1.6385,1.6457,1.6409,1.6415,1.6428,1.6523,1.6545,1.6553,1.661,1.6598,1.6602,1.6604,1.6606,1.6687,1.6686,0,0,0,0,0,0,1.6164,1.6186,1.6303,1.631,1.6252,1.6336,1.6351,1.6375,1.6457,1.647,1.6427,1.6431,1.6538,1.6548,1.6557,1.6581,1.6602,1.6606,1.6609,1.6687,1.6687,1.6686,0,0,0,0,0,0,1.6161,1.6174,1.6298,1.625,1.6267,1.6338,1.6364,1.6377,1.6399,1.647,1.6484,1.6436,1.6539,1.6551,1.6588,1.6586,1.6608,1.6612,1.6688,1.6687,1.6686,1.6626,0,0,0,0,0,0,1.6156,1.6172,1.6176,1.6249,1.6269,1.6325,1.6364,1.6379,1.6406,1.6412,1.6482,1.6494,1.654,1.6582,1.6592,1.6592,1.6615,1.6688,1.6687,1.6687,1.6628,1.6623,1.6619,0,0,0,0,0,1.615,1.6153,1.6176,1.6189,1.6276,1.6325,1.6336,1.6389,1.6405,1.6411,1.6458,1.6492,1.6585,1.6585,1.6598,1.6599,1.6688,1.6687,1.6687,1.6631,1.6624,1.6619,0,0,0,0,0,0,1.6076,1.6163,1.619,1.6216,1.6263,1.6337,1.6345,1.638,1.6422,1.6426,1.649,1.6505,1.6537,1.6572,1.657,1.6619,1.6641,1.6643,1.6594,1.6589,1.6584,1.6575,1.6619,0,0,0,0,0,1.6063,1.6095,1.617,1.6186,1.6208,1.6273,1.6296,1.6334,1.6384,1.6404,1.6453,1.6502,1.6543,1.6568,1.6609,1.6635,1.6653,1.6643,1.6638,1.6634,1.6634,1.6656,1.6653,1.6683,1.6683,1.6684,0,0,1.6035,1.6087,1.6103,1.6173,1.6213,1.6247,1.6289,1.6321,1.6347,1.6409,1.6448,1.6486,1.6545,1.6578,1.6595,1.6608,1.6631,1.6633,1.6629,1.6632,1.6655,1.6652,1.6649,1.6683,1.6683,1.6683,0,0,1.6003,1.6044,1.6065,1.6106,1.6168,1.6212,1.6217,1.6288,1.6317,1.6357,1.6406,1.6439,1.6506,1.6548,1.6577,1.6569,1.6603,1.658,1.6555,1.6576,1.6573,1.6572,1.6571,1.657,1.6581,1.6581,1.6581,0,1.5961,1.6012,1.6071,1.6102,1.6133,1.6193,1.6216,1.6253,1.6324,1.6345,1.636,1.645,1.6493,1.6539,1.6538,1.6559,1.6569,1.6572,1.6569,1.6568,1.6567,1.6568,1.6567,1.6578,1.6578,1.6578,1.6579,0,1.596,1.5996,1.6005,1.6075,1.6107,1.6134,1.6198,1.6224,1.6261,1.6304,1.6348,1.6403,1.6459,1.6473,1.6507,1.6525,1.6532,1.6557,1.6581,1.656,1.6562,1.6562,1.6573,1.6574,1.6575,1.6576,0,0,1.5879,1.5986,1.5989,1.6024,1.6099,1.6129,1.6161,1.6217,1.6239,1.6289,1.6319,1.6378,1.6403,1.6437,1.6478,1.6495,1.649,1.6519,1.6522,1.6514,1.6518,1.65,1.6499,1.6514,1.6514,1.6514,1.6514,0,1.586,1.5919,1.5975,1.6015,1.6052,1.6113,1.6141,1.6192,1.6235,1.6274,1.6322,1.6364,1.6392,1.6414,1.6435,1.6486,1.6492,1.6487,1.6545,1.6546,1.6528,1.6499,1.6478,1.6475,1.6515,1.6515,1.6515,0,1.5843,1.5892,1.5936,1.6014,1.6031,1.6055,1.6115,1.615,1.6211,1.6242,1.6283,1.6327,1.6367,1.6388,1.6446,1.6442,1.647,1.6499,1.65,1.6508,1.6529,1.6507,1.6475,1.6475,1.6516,1.6516,1.6516,0,1.5783,1.586,1.5898,1.5926,1.6017,1.6033,1.6072,1.6134,1.6166,1.6218,1.6241,1.6296,1.6327,1.637,1.643,1.6439,1.6483,1.6508,1.6512,1.651,1.6517,1.6516,1.649,1.6533,1.6533,1.6533,1.6533,0,1.5755,1.578,1.5873,1.5896,1.5928,1.5995,1.6025,1.6069,1.6125,1.616,1.6216,1.6248,1.6324,1.6366,1.6413,1.6457,1.6469,1.6497,1.6509,1.6492,1.6489,1.6511,1.6513,1.6533,1.6533,1.6533,1.6533,0,1.5692,1.5755,1.5801,1.5886,1.5908,1.5928,1.6001,1.6027,1.6076,1.612,1.6134,1.6211,1.6264,1.6328,1.6401,1.6433,1.6473,1.649,1.6452,1.6459,1.646,1.646,1.6448,1.6451,1.6491,1.649,1.649,0,1.567,1.5692,1.578,1.5808,1.5846,1.5889,1.5924,1.5992,1.6026,1.6101,1.6119,1.6177,1.6227,1.6309,1.6372,1.643,1.6451,1.6443,1.6459,1.6444,1.6453,1.6452,1.6456,1.6438,1.6437,1.6436,1.6436,0,1.5626,1.5658,1.5704,1.5764,1.5804,1.5854,1.5907,1.5927,1.6007,1.6042,1.6098,1.6137,1.6215,1.6272,1.634,1.6382,1.6423,1.6431,1.6435,1.6418,1.6396,1.641,1.6441,1.643,1.6431,1.6431,1.6432,1.6432,1.5584,1.5608,1.5675,1.5728,1.5775,1.5825,1.5855,1.591,1.5957,1.6026,1.6065,1.612,1.6187,1.6282,1.6323,1.637,1.6384,1.639,1.6391,1.6392,1.6388,1.6389,1.6382,1.6382,1.6383,1.6383,1.6383,0,1.5544,1.5592,1.564,1.5713,1.5756,1.5793,1.5855,1.5888,1.5936,1.5995,1.6045,1.6112,1.617,1.624,1.6304,1.6328,1.6349,1.6342,1.6341,1.6351,1.637,1.6361,1.6325,1.6325,1.6325,1.6325,1.6325,1.6325,1.5528,1.5572,1.5613,1.5683,1.5731,1.5787,1.582,1.5867,1.5915,1.5988,1.6037,1.6083,1.6148,1.6218,1.6274,1.6294,1.6315,1.6303,1.6328,1.6344,1.6349,1.6354,1.6346,1.6307,1.6307,1.6306,1.6306,1.6306]},{"header":{"parameterUnit":"m.s-1","parameterCategory":1,"la1":30.2991,"la2":30.254,"lo1":-89.0895,"lo2":-89.0444,"dy":0.0017,"dx":0.0017,"nx":28,"ny":28,"refTime":"2025-06-08T09:00:00:Z","depth":0,"parameterNumber":3,"parameterNumberName":"V-component_of_WINDS"},"data":[0,0,0,0,0,0,0,0,0,0,0,0,0,0,0,0,0,0,0,0,0,0,0,0,0,0,0,0,0,0,0,0,0,0,0,0,0,0,0,0,0,0,0,0,0,0,0,0,0,0,0,0,0,0,0,0,0,0,5.7588,5.7591,0,5.7859,5.7862,5.7865,5.7932,5.793,5.7928,5.7927,5.8194,5.8202,5.8211,0,0,0,0,0,0,0,0,0,0,0,0,0,5.712,5.7128,5.7588,5.7591,5.7595,5.7858,5.7862,5.7865,5.7932,5.793,5.7928,5.7926,5.8191,5.8201,5.8212,0,0,0,0,0,0,0,0,0,0,0,0,0,5.735,5.7131,5.7587,5.766,5.7669,5.7857,5.7862,5.7866,5.7933,5.793,5.7927,5.7925,5.8187,5.82,5.8213,5.8345,0,0,5.8253,5.8259,0,0,0,0,0,0,0,0,5.7337,5.7367,5.7646,5.7655,5.7666,5.7859,5.7795,5.8027,5.7933,5.7832,5.7927,5.7924,5.8084,5.8105,5.8161,5.8357,5.8369,5.8254,5.8262,5.8268,5.8271,0,0,0,0,0,0,0,5.7321,5.7356,5.7695,5.765,5.7662,5.7676,5.7706,5.7839,5.7969,5.7841,5.7846,5.7878,5.8089,5.8148,5.8168,5.8373,5.8254,5.8265,5.8273,5.8278,5.8691,5.8694,0,0,0,0,0,0,5.7294,5.7342,5.7686,5.7703,5.7492,5.7687,5.772,5.7799,5.7968,5.7991,5.788,5.788,5.8127,5.8153,5.8178,5.8344,5.8267,5.828,5.8287,5.8688,5.8692,5.8695,0,0,0,0,0,0,5.7283,5.7324,5.7675,5.7524,5.757,5.7698,5.7786,5.7806,5.7866,5.7997,5.802,5.7918,5.8126,5.8159,5.8304,5.8354,5.8286,5.8297,5.8684,5.8689,5.8693,5.8678,0,0,0,0,0,0,5.727,5.732,5.7373,5.7525,5.7578,5.78,5.7789,5.7813,5.789,5.7893,5.8039,5.806,5.8127,5.8284,5.8317,5.8371,5.8308,5.868,5.8686,5.8692,5.8674,5.8681,5.8687,0,0,0,0,0,5.7253,5.7356,5.7376,5.7417,5.7648,5.7803,5.7832,5.791,5.7894,5.7947,5.8031,5.8056,5.8343,5.8298,5.8336,5.8395,5.8677,5.8685,5.8691,5.8671,5.868,5.8687,0,0,0,0,0,0,5.7203,5.7377,5.7401,5.7557,5.7665,5.7814,5.7884,5.7916,5.8028,5.8026,5.8113,5.8146,5.8285,5.8354,5.83,5.8531,5.851,5.8525,5.8482,5.8491,5.8497,5.8478,5.8318,0,0,0,0,0,5.7211,5.7325,5.7469,5.7592,5.7646,5.7755,5.7825,5.7876,5.799,5.8035,5.8129,5.8236,5.8351,5.8424,5.8537,5.8684,5.8716,5.8743,5.8749,5.8754,5.8766,5.8849,5.8863,5.8718,5.8718,5.8718,0,0,5.7227,5.7336,5.7402,5.7585,5.7675,5.7789,5.7793,5.7913,5.7997,5.8052,5.8196,5.8268,5.8393,5.854,5.8609,5.8602,5.8813,5.8763,5.8766,5.8775,5.8858,5.8871,5.8883,5.8723,5.8722,5.8721,0,0,5.7315,5.7409,5.7523,5.7613,5.775,5.7823,5.7849,5.7994,5.8046,5.8192,5.8236,5.8335,5.8531,5.8619,5.8688,5.881,5.8836,5.8843,5.8878,5.8958,5.8969,5.898,5.9023,5.9038,5.8855,5.8855,5.8855,0,5.7317,5.7493,5.7576,5.7696,5.7774,5.7832,5.7947,5.8029,5.8194,5.8246,5.8236,5.8484,5.8571,5.874,5.8769,5.8824,5.8856,5.8828,5.8961,5.8973,5.8984,5.9026,5.9043,5.8855,5.8855,5.8855,5.8855,0,5.7489,5.761,5.7685,5.7847,5.7934,5.805,5.8148,5.8226,5.8268,5.834,5.8487,5.8595,5.8731,5.8774,5.8815,5.8949,5.894,5.8944,5.8925,5.8996,5.9038,5.9055,5.8855,5.8855,5.8855,5.8855,0,0,5.7553,5.7762,5.7788,5.7863,5.8018,5.8112,5.8229,5.8366,5.843,5.8541,5.8641,5.8805,5.8811,5.889,5.8941,5.9011,5.9102,5.9008,5.9012,5.9022,5.9255,5.9252,5.927,5.912,5.9123,5.9126,5.9245,0,5.7661,5.7878,5.7956,5.8133,5.8246,5.8302,5.8404,5.8509,5.8579,5.8682,5.8758,5.8874,5.8872,5.8921,5.8993,5.9075,5.915,5.9068,5.9212,5.9216,5.9181,5.9292,5.9289,5.9396,5.9262,5.9265,5.9267,0,5.7816,5.7934,5.8123,5.8266,5.8316,5.8407,5.8539,5.8637,5.8756,5.8802,5.8892,5.8938,5.906,5.9033,5.9201,5.9144,5.9207,5.9256,5.9262,5.928,5.9247,5.9313,5.9432,5.9449,5.9293,5.9291,5.9289,0,5.7846,5.8051,5.8191,5.8253,5.8423,5.8485,5.8558,5.8675,5.8752,5.8865,5.8916,5.904,5.9109,5.9203,5.9281,5.9253,5.9443,5.9421,5.9483,5.9481,5.9522,5.9518,5.9654,5.9559,5.9559,5.9559,5.9559,0,5.7959,5.8073,5.8207,5.8294,5.8422,5.8509,5.8633,5.8708,5.8812,5.8912,5.8966,5.9057,5.9155,5.9258,5.9319,5.945,5.9479,5.9519,5.9534,5.9515,5.9511,5.9559,5.9554,5.9563,5.9562,5.9561,5.9561,0,5.8014,5.8109,5.8266,5.8415,5.8455,5.8543,5.8668,5.8753,5.8825,5.8951,5.8985,5.9098,5.9223,5.9311,5.9469,5.951,5.9652,5.9665,5.9613,5.9621,5.9679,5.9673,5.9852,5.988,5.9765,5.9766,5.9766,0,5.8081,5.8171,5.833,5.8403,5.8477,5.8593,5.8673,5.8761,5.8842,5.8985,5.9051,5.9181,5.9289,5.9485,5.958,5.9701,5.9719,5.9773,5.9737,5.9716,5.9721,5.9716,5.9725,5.9779,5.978,5.978,5.9781,0,5.819,5.8233,5.8349,5.8481,5.8576,5.8684,5.8791,5.8846,5.8953,5.904,5.9171,5.9255,5.942,5.9547,5.9678,5.9749,5.9783,5.9791,5.9813,5.9795,5.9762,5.9782,5.963,5.9787,5.9786,5.9786,5.9786,5.9785,5.8255,5.8337,5.8463,5.859,5.8681,5.878,5.8868,5.8953,5.9065,5.9209,5.9252,5.9388,5.9503,5.9684,5.9757,5.9862,5.9858,5.9888,5.9896,5.9903,5.9903,5.9744,5.9886,5.9886,5.9885,5.9885,5.9885,0,5.8368,5.8452,5.8568,5.8719,5.8818,5.8844,5.8964,5.9045,5.9165,5.9272,5.9378,5.9528,5.9652,5.9756,5.9884,5.9948,5.9966,5.9978,5.9975,5.9991,5.9899,5.9869,5.9961,5.9961,5.9961,5.9961,5.9961,5.9961,5.8438,5.858,5.8638,5.8825,5.8907,5.9044,5.911,5.9202,5.9288,5.9454,5.9559,5.9627,5.9733,5.9869,5.9983,6.001,6.0055,6.0064,6.0094,6.0006,5.9997,5.9989,5.9962,6.0072,6.0072,6.0179,6.0179,6.018]}]]